PILOTS ONLINE: 999    ATC ONLINE: 207

KMEV

Minden Tahoe Airport

Location

City Minden
Country  United States
Latitude 39° 0' 1" N
Longitude 119° 45' 3" W
Elevation 4722 ft
Type Small Airport

Map

Weather

METAR
2014/10/25 15:35
KMEV 251535Z AUTO 18018G21KT 10SM CLR 15/M03 A3001 RMK AO2
TAF
No TAF available

Runways

12/30 5300 ft / 75 ft
12G/30G 2200 ft / 60 ft
16/34 7400 ft / 100 ft

Outbound flights

Callsign Flying to Pilot ATD/STD ETA Aircraft

Inbound flights

Callsign Flying from Pilot ATD ETA Aircraft